TimeAKDT,TemperatureF,Dew PointF,Humidity,Sea Level PressureIn,VisibilityMPH,Wind Direction,Wind SpeedMPH,Gust SpeedMPH,PrecipitationIn,Events,Conditions,WindDirDegrees,DateUTC
12:53 AM,30.0,18.0,61,29.94,10.0,WNW,10.4,-,N/A,,Clear,300,2013-03-13 08:53:00
1:53 AM,30.0,16.0,56,29.94,10.0,NW,9.2,-,N/A,,Scattered Clouds,310,2013-03-13 09:53:00
2:53 AM,28.0,15.1,58,29.92,10.0,NW,9.2,-,N/A,,Clear,310,2013-03-13 10:53:00
3:53 AM,28.0,14.0,56,29.92,10.0,NW,8.1,-,N/A,,Clear,310,2013-03-13 11:53:00
4:53 AM,28.0,10.9,49,29.90,10.0,Calm,Calm,-,N/A,,Clear,0,2013-03-13 12:53:00
5:53 AM,27.0,10.9,51,29.89,10.0,NW,6.9,-,N/A,,Clear,320,2013-03-13 13:53:00
6:53 AM,27.0,12.0,53,29.88,10.0,NW,10.4,-,N/A,,Clear,320,2013-03-13 14:53:00
7:53 AM,27.0,12.0,53,29.86,10.0,WNW,10.4,-,N/A,,Clear,300,2013-03-13 15:53:00
8:53 AM,26.1,12.0,55,29.86,10.0,NW,10.4,-,N/A,,Clear,310,2013-03-13 16:53:00
9:53 AM,30.0,14.0,51,29.84,10.0,NW,8.1,-,N/A,,Partly Cloudy,310,2013-03-13 17:53:00
10:53 AM,30.9,17.1,57,29.84,10.0,WNW,12.7,-,N/A,,Partly Cloudy,300,2013-03-13 18:53:00
11:53 AM,32.0,18.0,56,29.84,10.0,WNW,10.4,19.6,N/A,,Partly Cloudy,300,2013-03-13 19:53:00
12:53 PM,33.1,18.0,54,29.83,10.0,West,12.7,-,N/A,,Partly Cloudy,280,2013-03-13 20:53:00
1:53 PM,35.1,18.0,50,29.81,10.0,NW,5.8,-,N/A,,Partly Cloudy,310,2013-03-13 21:53:00
2:53 PM,36.0,18.0,48,29.79,10.0,WNW,10.4,-,N/A,,Scattered Clouds,290,2013-03-13 22:53:00
3:53 PM,35.1,17.1,48,29.77,10.0,Calm,Calm,-,N/A,,Scattered Clouds,0,2013-03-13 23:53:00
4:53 PM,34.0,18.0,52,29.75,10.0,North,3.5,-,N/A,,Scattered Clouds,360,2013-03-14 00:53:00
5:53 PM,32.0,24.1,73,29.74,7.0,North,10.4,-,0.00,Snow,Light Snow,350,2013-03-14 01:53:00
6:53 PM,30.0,25.0,82,29.74,5.0,NW,8.1,-,0.00,Snow,Light Snow,310,2013-03-14 02:53:00
7:53 PM,28.9,25.0,85,29.73,9.0,West,8.1,-,0.00,,Mostly Cloudy,260,2013-03-14 03:53:00
8:53 PM,28.0,24.1,85,29.72,10.0,WNW,5.8,-,N/A,,Overcast,290,2013-03-14 04:53:00
9:53 PM,27.0,23.0,85,29.72,10.0,WNW,4.6,-,N/A,,Overcast,290,2013-03-14 05:53:00
10:53 PM,27.0,21.0,78,29.70,10.0,NW,9.2,-,N/A,,Scattered Clouds,310,2013-03-14 06:53:00
11:53 PM,26.1,19.9,78,29.70,10.0,Calm,Calm,-,N/A,,Clear,0,2013-03-14 07:53:00